This is the latest recevied weather packets stored in our database for station/object SP1BMW-13. If no packets are shown the sender has not sent any weather packets the latest 1 day(s).
| Time | Temp. | Humidity | Pressure | Rain* | Wind** | Luminosity | Snow |
|---|---|---|---|---|---|---|---|
| 1778060092 | 10° C | 95% | 1005.1 hPa | 1.02 mm | 0.45 m/s, 59° | 101 W/m² | - |
| 1778060032 | 10° C | 96% | 1004.9 hPa | 1.02 mm | 0.89 m/s, 338° | 121 W/m² | - |
| 1778059912 | 9.44° C | 96% | 1005.2 hPa | 1.02 mm | 0.89 m/s, 21° | 120 W/m² | - |
| 1778059732 | 10° C | 96% | 1005 hPa | 1.02 mm | 0.45 m/s, 19° | 88 W/m² | - |
| 1778059493 | 9.44° C | 96% | 1004.9 hPa | 1.02 mm | 0.45 m/s, 7° | 66 W/m² | - |
| 1778059432 | 9.44° C | 96% | 1004.9 hPa | 1.02 mm | 0.45 m/s, 339° | 62 W/m² | - |
| 1778059373 | 9.44° C | 96% | 1005.1 hPa | 0.76 mm | 0.45 m/s, 13° | 69 W/m² | - |
| 1778059312 | 9.44° C | 96% | 1005.1 hPa | 0.76 mm | 0.45 m/s, 34° | 84 W/m² | - |
| 1778059253 | 9.44° C | 96% | 1005.1 hPa | 0.76 mm | 0.89 m/s, 21° | 71 W/m² | - |
| 1778059132 | 9.44° C | 96% | 1005.2 hPa | 0.76 mm | 0.89 m/s, 349° | 75 W/m² | - |
| 1778059012 | 9.44° C | 96% | 1005 hPa | 0.76 mm | 0.45 m/s, 36° | 81 W/m² | - |
| 1778058712 | 9.44° C | 95% | 1005 hPa | 0.51 mm | 0.89 m/s, 57° | 63 W/m² | - |
| 1778058652 | 9.44° C | 95% | 1005.1 hPa | 0.51 mm | 0.89 m/s, 35° | 67 W/m² | - |
| 1778058592 | 9.44° C | 95% | 1005.2 hPa | 0.76 mm | 0.45 m/s, 61° | 66 W/m² | - |
| 1778058532 | 9.44° C | 95% | 1005.1 hPa | 0.76 mm | 0 m/s | 64 W/m² | - |
| 1778058472 | 9.44° C | 95% | 1005.1 hPa | 0.76 mm | 0.45 m/s, 46° | 54 W/m² | - |
| 1778058412 | 9.44° C | 95% | 1005.2 hPa | 0.51 mm | 0.45 m/s, 54° | 47 W/m² | - |
| 1778058353 | 9.44° C | 95% | 1005 hPa | 0.51 mm | 0.45 m/s, 36° | 46 W/m² | - |
| 1778058232 | 9.44° C | 95% | 1004.9 hPa | 0.51 mm | 0.89 m/s, 43° | 63 W/m² | - |
| 1778058172 | 9.44° C | 95% | 1004.8 hPa | 0.51 mm | 0 m/s | 71 W/m² | - |
| 1778058112 | 9.44° C | 95% | 1005 hPa | 0.51 mm | 0.45 m/s, 35° | 60 W/m² | - |
| 1778057932 | 9.44° C | 95% | 1004.9 hPa | 0.51 mm | 0.89 m/s, 41° | 40 W/m² | - |
| 1778057813 | 9.44° C | 95% | 1005 hPa | 0.51 mm | 0.89 m/s, 43° | 47 W/m² | - |
| 1778057692 | 9.44° C | 95% | 1005.1 hPa | 0.51 mm | 0.45 m/s, 36° | 31 W/m² | - |
| 1778057632 | 9.44° C | 95% | 1005 hPa | 0.25 mm | 0.89 m/s, 20° | 31 W/m² | - |
* Rain latest hour (hover to see other rain measurements)
** Current wind speed in m/s (hover to see current wind gust speed)